INTERCOSMOS 24

Last updated on Tue Jul 01 2025 00:02:14 GMT+0000 (Coordinated Universal Time)

1 20261U 89080A 25181.47987081 .00000616 00000+0 17417-3 0 9992 2 20261 82.6053 268.4041 1191090 157.8187 207.9233 12.59058324635054
UTC large
Height (km)
Speed (km/s)
/
Latitude / Longitude
Inclination (degrees)
Orbital Period (minutes)
Azimuth
Elevation
Range (km)
Doppler Factor

Next 0 passes for location: London (51.5072 / 0.1276)

Sorry there are no passes over London.